Retour au catalogue

STARLINK-6379

ActifCommunicationsVLEO
NORAD 57343·PAYLOAD·🇺🇸 United States

Lancé Jul 16, 2023 depuis Cape Canaveral Space Force Station

Loading…

Prochains Passages (prochaines 24 heures)

TLE

FraisSource: CelesTrak SupGP

Époque: Sep 15, 2026, 02:09 UTC

1 57343C 23099R   26258.09006944 -.00011347  00000+0 -41101-3 0  2585
2 57343  43.0001 263.0727 0001117 259.5904 299.3621 15.27583511    14

Suivez STARLINK-6379 en temps réel avec AllMySat

Download on the App Store